Location: Asheville, NC
(35.6000°N, 82.5500°W)
Time: 07:13:40
(UTC-04:00)

Vanguard 3 - Pass Details

Date: 16 February 2018
Orbit: 508 x 3264 km, 33.4° (Epoch: 20 May)

Event Time Altitude Azimuth Distance (km) Brightness Sun altitude
Rises 17:51:24 0° 252° (WSW) 2,710 13.4 3.4°
Reaches altitude 10° 17:53:41 10° 248° (WSW) 1,731 11.4 3.0°
Maximum altitude 17:57:16 53° 170° (S) 629 6.8 2.3°
Drops below altitude 10° 18:01:11 10° 93° (E) 1,885 8.5 1.5°
Sets 18:03:47 0° 88° (E) 2,989 9.4 1.0°
